Location: Ar Ranvel
(48.3000°N, 4.8833°W)
Time: 11:01:05
(UTC+00:00)

Cosmos 1726 Rocket - Pass Details

Date: 16 June 2021
Orbit: 602 x 630 km, 82.5° (Epoch: 28 July)

Event Time Altitude Azimuth Distance (km) Brightness Sun altitude
Rises 23:27:05 0° 349° (NNW) 2,935 8.8 -17.3°
Reaches altitude 10° 23:29:20 10° 348° (NNW) 2,021 7.5 -17.4°
Maximum altitude 23:33:49 76° 264° (W) 654 3.6 -17.6°
Enters shadow 23:35:38 35° 184° (S) 1,017 4.1 -17.6°
